Weather History for Corona, CA

Change the Weather History Date:

Monday, November 4, 2013

  Actual Average (KONT) Record (KONT)
Temperature  
Mean Temperature 54 °F 63 °F  
Max Temperature 64 °F 76 °F 96 °F (2010)
Min Temperature 41 °F 50 °F 45 °F (2002)
Degree Days  
Heating Degree Days 10 3  
Month to date heating degree days 12  
Since 1 July heating degree days 57  
Cooling Degree Days 0 2  
Month to date cooling degree days 8  
Year to date cooling degree days 1691  
Growing Degree Days 4 (Base 50)    
Moisture  
Dew Point 51 °F    
Average Humidity 82    
Maximum Humidity 100    
Minimum Humidity 56    
Precipitation  
Precipitation 0.00 in 0.05 in 0.30 in (2011)
Month to date precipitation 0.20  
Year to date precipitation 11.71  
Since 1 July precipitation 1.33  
Snow  
Snow 0.00 in - - ()
Month to date snowfall  
Year to date snowfall  
Since 1 July snowfall  
Snow Depth -    
Sea Level Pressure  
Sea Level Pressure 29.85 in    
Wind  
Wind Speed 2 mph (NW)    
Max Wind Speed 10 mph    
Max Gust Speed -    
Visibility 10 miles    
Events      
T = Trace of Precipitation, MM = Missing Value Source: NWS Daily Summary

Daily Weather History Graph

Daily Weather History Graph

Search for Another Location

Airport:

Trip Planner

Search our weather history database for the weather conditions in past years. The results will help you decide how hot, cold, wet, or windy it might be!

Date:

Astronomy

Nov. 04, 2013 Rise Set
Actual Time 6:12 AM PST 4:54 PM PST
Civil Twilight 5:46 AM PST 5:20 PM PST
Nautical Twilight 5:17 AM PST 5:50 PM PST
Astronomical Twilight 4:47 AM PST 6:19 PM PST
Moon 7:25 AM PST (11/4) 6:07 PM PST (11/4)
Length of Visible Light 11h 33m
Length of Day
10h 41m
New Moon, 2% of the Moon is Illuminated
Nov 4
New Moon
Nov 9
First Quarter
Nov 17
Full
Nov 25
Last Quarter
Dec 2
New

Hourly Weather History & Observations

Time (PST) Temp. Dew Point Humidity Pressure Visibility Wind Dir Wind Speed Gust Speed Precip Events Conditions
12:56 AM 55.9 °F 52.9 °F 89% 29.83 in 10.0 mi Calm Calm - N/A   Overcast
1:56 AM 55.9 °F 52.9 °F 89% 29.81 in 10.0 mi ESE 3.5 mph - N/A   Overcast
2:56 AM 54.0 °F 52.9 °F 96% 29.81 in 10.0 mi Calm Calm - N/A   Mostly Cloudy
3:23 AM 55.4 °F 55.4 °F 100% 29.81 in 10.0 mi Calm Calm - N/A   Mostly Cloudy
3:56 AM 55.9 °F 55.9 °F 100% 29.80 in 10.0 mi Calm Calm - N/A   Overcast
4:45 AM 55.4 °F 55.4 °F 100% 29.82 in 5.0 mi West 3.5 mph - N/A   Overcast
4:56 AM 55.9 °F 54.9 °F 96% 29.81 in 5.0 mi Calm Calm - N/A   Overcast
5:56 AM 55.9 °F 54.0 °F 93% 29.81 in 10.0 mi Calm Calm - N/A   Overcast
6:09 AM 55.4 °F 53.6 °F 94% 29.82 in 10.0 mi NE 3.5 mph - N/A   Overcast
6:22 AM 55.4 °F 53.6 °F 94% 29.83 in 10.0 mi Calm Calm - N/A   Overcast
6:44 AM 57.2 °F 53.6 °F 88% 29.83 in 10.0 mi ESE 3.5 mph - N/A   Overcast
6:56 AM 56.8 °F 52.0 °F 84% 29.83 in 10.0 mi Calm Calm - N/A   Overcast
7:18 AM 57.2 °F 51.8 °F 82% 29.85 in 10.0 mi Calm Calm - N/A   Overcast
7:56 AM 59.0 °F 52.0 °F 78% 29.85 in 10.0 mi Calm Calm - N/A   Mostly Cloudy
8:12 AM 59.0 °F 51.8 °F 77% 29.87 in 10.0 mi Calm Calm - N/A   Mostly Cloudy
8:56 AM 59.0 °F 50.9 °F 74% 29.87 in 10.0 mi NNW 3.5 mph - N/A   Mostly Cloudy
9:56 AM 59.9 °F 50.9 °F 72% 29.88 in 10.0 mi North 4.6 mph - N/A   Mostly Cloudy
10:56 AM 59.9 °F 50.9 °F 72% 29.86 in 10.0 mi NNE 6.9 mph - N/A   Mostly Cloudy
11:56 AM 61.0 °F 50.0 °F 67% 29.85 in 10.0 mi North 5.8 mph - N/A   Mostly Cloudy
12:56 PM 63.0 °F 48.9 °F 60% 29.84 in 10.0 mi North 4.6 mph - N/A   Mostly Cloudy
1:56 PM 63.9 °F 47.8 °F 56% 29.83 in 10.0 mi West 4.6 mph - N/A   Clear
2:56 PM 64.9 °F 48.9 °F 56% 29.82 in 10.0 mi West 5.8 mph - N/A   Clear
3:56 PM 63.9 °F 48.9 °F 58% 29.83 in 10.0 mi West 10.4 mph - N/A   Clear
4:56 PM 61.0 °F 48.9 °F 64% 29.84 in 10.0 mi West 6.9 mph - N/A   Clear
5:56 PM 59.0 °F 48.9 °F 69% 29.87 in 10.0 mi West 6.9 mph - N/A   Clear
6:56 PM 57.9 °F 46.9 °F 67% 29.88 in 10.0 mi West 5.8 mph - N/A   Clear
7:56 PM 54.9 °F 46.9 °F 75% 29.90 in 10.0 mi Calm Calm - N/A   Clear
8:56 PM 50.9 °F 47.8 °F 89% 29.92 in 10.0 mi Calm Calm - N/A   Clear
9:56 PM 50.9 °F 47.8 °F 89% 29.94 in 10.0 mi Calm Calm - N/A   Scattered Clouds
10:56 PM 45.0 °F 45.0 °F 100% 29.94 in 10.0 mi Calm Calm - N/A   Clear
11:56 PM 41.9 °F 41.9 °F 100% 29.95 in 10.0 mi Calm Calm - N/A   Clear